{"data":{"norad_id":900,"epoch":"2026-05-25T03:12:31.311072Z","epoch_age_seconds":66513,"freshness":"FRESH","line1":"1 00900U 64063C   26145.13369573  .00000582  00000+0  58285-3 0  9998","line2":"2 00900  90.2237  71.2271 0027040   7.8403  98.2715 13.76594580 68250","mean_motion":13.7659458,"eccentricity":0.002704,"inclination_deg":90.2237,"raan_deg":71.2271,"arg_perigee_deg":7.8403,"mean_anomaly_deg":98.2715,"bstar":0.00058285,"rev_number":6825,"period_min":104.60596176399,"perigee_km":956.10464782288,"apogee_km":995.87576776262,"semimajor_km":7354.1272077927,"source":"CELESTRAK","updated_at":"2026-05-25T13:38:25.283624Z"}}